Volver al catálogo

FENGYUN 1C DEB

ActivoSSO
NORAD 36153·DEBRIS·🇨🇳 China

Lanzado May 10, 1999 desde Taiyuan Satellite Launch Center

Loading…

Próximos Pases (próximas 24 horas)

TLE

EnvejeciendoSource: Space-Track

Época: Sep 8, 2026, 12:32 UTC

1 36153U 99025DSA 26251.52265159  .00004715  00000-0  11386-2 0  9992
2 36153  98.5923 352.7116 0028453 307.8374  52.0247 14.53378407688784

Sigue FENGYUN 1C DEB en tiempo real con AllMySat

Download on the App Store